Location: B?tr�na
(45.7833°N, 22.5833°E)
Time: 05:48:04
(UTC+00:00)

Daily predictions for brighter satellites

Satellite Brightness Start Highest point End
(mag) Time Altitude Azimuth Time Altitude Azimuth Time Altitude Azimuth
ATLAS 5 CENTAUR R/B 2.3 00:00:08 10° NW 00:05:45 83° NE 00:06:58 60° SE
COSMOS 2406 3.2 00:03:02 10° NNW 00:08:16 75° NW 00:08:16 75° NW
Cosmos 1238 Rocket 3.9 00:03:46 10° NNW 00:10:09 71° W 00:10:27 70° WSW
NOSS 3-3 (A) 3.7 00:14:54 78° S 00:15:15 83° SE 00:21:50 10° NE
NOSS 3-3 (C) 3.7 00:15:00 78° S 00:15:22 82° SE 00:21:56 10° NE
NPP 3.7 00:10:32 10° NNE 00:15:56 69° ESE 00:16:10 68° ESE
Cosmos 1862 Rocket 4.3 00:18:26 50° N 00:18:26 50° N 00:21:45 10° N
BREEZE-M R/B 3.6 00:19:32 60° NNW 00:19:46 61° N 00:26:55 10° ENE
UNK 4.1 00:21:13 59° NNW 00:21:13 59° NNW 00:25:02 10° NNW
ATLAS 2AS CENTAUR R/B 4.3 00:13:47 10° NNW 00:20:40 36° NNE 00:27:03 10° E
Cosmos 2181 Rocket 4.0 00:21:34 59° W 00:22:00 60° WNW 00:28:12 10° N
SJ 16-02 2.0 00:25:14 49° NNW 00:25:14 49° NNW 00:28:47 10° NNE
Cosmos 1975 3.9 00:21:36 10° N 00:24:16 40° N 00:24:16 40° N
SL-8 Rocket 4.3 00:22:59 10° NNW 00:28:55 47° W 00:28:55 47° W
Okean 1-7 3.5 00:33:08 53° E 00:33:08 53° E 00:37:09 10° NNE
ADEOS Rocket 3.8 00:34:34 12° SE 00:40:29 57° ENE 00:47:28 10° N
DELTA 2 R/B (1) 4.2 00:42:36 39° SE 00:42:36 39° SE 00:46:47 10° ESE
Cosmos 1680 Rocket 3.4 00:40:15 10° NNW 00:45:35 89° WSW 00:46:49 55° SSE
Milstar 3 4.4 00:46:59 20° SSE 00:46:59 20° SSE 00:52:28 10° ESE
Meteor 1-19 Rocket 4.3 00:46:28 52° W 00:46:55 54° WNW 00:52:20 10° N
CZ-4C R/B 4.2 00:47:30 37° SE 00:48:54 55° ENE 00:53:14 10° N
SL-19 R/B 4.4 00:45:49 10° N 00:51:57 68° WNW 00:53:20 52° SW
Meteor 2-4 Rocket 3.8 00:56:22 52° SSW 00:57:49 75° WNW 01:03:44 10° N
USA 234 3.3 00:53:00 10° NE 00:59:32 70° SE 01:01:54 42° SSW
Resurs 1-4 Rocket 2.6 00:55:33 10° N 01:00:27 41° WNW 01:01:06 39° W
Cosmos 2082 Rocket 2.2 01:01:36 10° NNW 01:07:07 57° WSW 01:08:15 48° SSW
Sich 1 Rocket 4.4 01:03:08 10° N 01:07:38 51° ENE 01:11:00 17° SSE
SL-4 R/B 2.2 01:05:32 32° WNW 01:07:47 78° SSW 01:12:35 10° SE
Cosmos 2239 Rocket 4.4 01:01:35 10° N 01:07:48 78° W 01:10:51 32° S
DELTA 2 DEB (DPAF) 4.2 01:08:41 57° W 01:08:41 57° W 01:12:59 10° NNW
Cosmos 2242 Rocket 3.7 01:08:48 55° W 01:08:53 55° WNW 01:13:14 10° N
Cosmos 1833 Rocket 3.9 01:08:12 10° NW 01:11:25 24° WNW 01:11:25 24° WNW
Cosmos 990 Rocket 4.1 01:12:31 47° WSW 01:13:38 58° WNW 01:18:48 10° NNE
CZ-4C R/B 2.9 01:06:32 10° NW 01:13:48 66° WSW 01:22:08 10° SSE
Helios 1B rocket 4.0 01:11:51 10° NNW 01:14:52 22° WNW 01:14:52 22° WNW
CZ-2D R/B 3.1 01:10:13 10° N 01:15:06 34° WNW 01:16:15 31° W
MSX 4.4 01:12:13 10° NNE 01:17:51 53° E 01:21:58 18° S
SL-16 R/B 3.4 01:19:17 30° W 01:19:32 30° W 01:24:57 10° NW
Cosmos 1356 Rocket 3.8 01:15:34 10° N 01:19:40 61° ENE 01:22:31 19° SSE
IRS-P3 4.4 01:16:33 10° NNE 01:21:53 64° ESE 01:25:05 24° S
Cosmos 1821 Rocket 4.3 01:17:12 10° NNW 01:23:17 50° W 01:25:39 34° SW
Meteor 1-28 Rocket 3.3 01:23:51 53° WNW 01:23:51 53° WNW 01:27:12 10° NNW
Cosmos 1937 Rocket 3.4 01:25:29 42° SW 01:27:14 73° WNW 01:32:23 10° NNE
Cosmos 858 Rocket 4.4 01:28:34 39° SW 01:30:28 72° WNW 01:35:42 10° NNE
Cosmos 2278 Rocket 3.5 01:30:00 22° W 01:32:07 28° NW 01:36:59 10° N
ARIANE 5 R/B 3.0 01:27:00 10° NNE 01:32:12 61° ESE 01:35:58 19° S
Cosmos 1943 Rocket 2.4 01:29:12 27° S 01:32:17 69° ESE 01:37:54 10° NNE
Cosmos 2084 3.3 01:32:01 49° WSW 01:33:04 75° NW 01:37:21 10° NE
ADEOS II 2.5 01:28:16 10° N 01:33:16 46° WNW 01:35:02 33° WSW
ARGOS Delta rocket 4.0 01:29:09 10° N 01:33:22 46° WNW 01:34:19 39° WSW
Cosmos 1898 Rocket 3.9 01:31:54 35° WSW 01:33:38 49° WNW 01:38:46 10° NNE
Cosmos 1535 Rocket 4.4 01:34:38 10° NNW 01:40:44 70° W 01:46:16 13° S
Cosmos 1066 Rocket 4.2 01:39:55 24° SSW 01:43:35 79° WNW 01:49:29 10° N
Meteor 1-15 Rocket 4.1 01:38:57 10° NNW 01:44:33 86° W 01:50:09 10° S
CBERS-1 4.4 01:44:08 10° N 01:49:00 46° WNW 01:51:19 28° SW
Cosmos 372 Rocket 3.9 01:46:26 27° SSW 01:49:20 84° WNW 01:54:29 10° NNE
ATLAS 5 CENTAUR R/B 3.8 01:45:43 10° WNW 01:48:21 19° W 01:48:21 19° W
Gbstr 26 Del rocket 4.4 01:46:45 12° WNW 01:51:59 45° N 01:56:36 10° ENE
IDEFIX/ARIANE 42P 2.7 01:51:23 10° N 01:56:29 56° WNW 01:59:37 23° SW
FALCON 9 DEB 4.2 01:58:03 24° S 01:58:03 24° S 01:59:41 10° SSE
Cosmos 2369 Rocket 2.6 01:52:31 14° S 01:57:12 59° ESE 02:02:44 10° NNE
NOSS 3-4 (A) 3.9 01:50:50 10° NW 01:57:43 56° WSW 02:05:22 10° SSE
NOSS 3-4 (C) 3.9 01:50:56 10° NW 01:57:50 56° WSW 02:05:29 10° SSE
Cosmos 2151 Rocket 3.6 01:53:41 10° N 01:58:14 89° E 02:02:46 10° S
IRS-1D 4.4 01:53:56 10° N 01:58:31 33° WNW 02:00:56 22° WSW
CZ-2D R/B 3.5 01:54:57 10° NNE 01:59:07 80° ESE 02:02:32 15° S
Cosmos 1300 Rocket 3.7 01:55:12 10° NNW 01:59:34 55° W 02:02:59 16° SSW
OE (NEXTSAT) 4.2 01:58:18 34° WSW 01:59:40 82° SSE 02:03:08 10° E
Meteor 1-23 Rocket 4.2 01:56:02 17° SSW 02:00:30 77° WNW 02:06:18 10° N
Okean 3 4.3 01:59:32 27° WSW 02:00:58 33° WNW 02:04:54 10° N
X-37B 0.5 02:00:54 37° WSW 02:02:00 73° S 02:05:11 10° E
Okean 2 Rocket 3.0 01:58:14 10° NNW 02:02:38 63° W 02:06:59 10° S
Cosmos 1934 Rocket 4.3 01:56:47 10° NNW 02:02:41 44° W 02:07:33 15° SSW
Cosmos 2297 4.1 02:02:44 22° SW 02:06:13 51° WNW 02:11:48 10° NNE
CZ-2C R/B 3.5 02:05:30 10° NNE 02:09:13 51° E 02:12:58 10° S
Cosmos 1125 Rocket 4.2 02:05:07 10° S 02:10:14 53° ESE 02:15:21 10° NNE
Cosmos 2221 Rocket 3.8 02:07:25 20° SSW 02:10:24 56° WNW 02:14:53 10° N
ATLAS 2AS CENTAUR R/B 2.7 02:04:54 10° NW 02:12:12 70° WSW 02:18:55 10° SSE
SL-08 R/B 3.6 02:09:45 10° S 02:14:30 49° W 02:19:12 10° NNW
CZ-4B R/B 3.7 02:12:22 10° N 02:16:56 47° WNW 02:20:27 17° SW
Cosmos 1766 3.5 02:16:47 10° NNW 02:20:38 47° W 02:24:28 10° SSW
ADEOS Rocket 4.1 02:21:30 13° SW 02:26:24 29° W 02:32:25 10° NNW
Cosmos 1605 Rocket 4.3 02:20:38 10° NNW 02:26:24 45° W 02:32:11 10° SSW
Okean 1 Rocket 3.1 02:22:06 10° N 02:26:35 85° ENE 02:31:03 10° S
DELTA 2 R/B (1) 4.1 02:23:21 15° WSW 02:27:26 39° SSW 02:32:36 10° SE
Cosmos 2150 Rocket 4.1 02:21:58 10° SSW 02:27:27 88° WNW 02:32:54 10° NNE
Cosmos 1733 4.0 02:27:14 10° NNW 02:30:33 30° W 02:33:46 10° SSW
Meteor 1-22 Rocket 4.3 02:26:44 10° NNW 02:32:16 63° W 02:38:00 10° S
Cosmos 1656 Rocket 3.8 02:31:37 10° SSW 02:37:00 76° ESE 02:42:29 10° NNE
USA 234 3.9 02:36:09 10° NE 02:42:24 49° NNW 02:48:39 10° W
USA 305 3.9 02:40:18 10° NW 02:44:28 49° NNE 02:48:39 10° E
Cosmos 2100 Rocket 4.0 02:39:16 10° N 02:45:27 79° W 02:51:41 10° S
SL-27 R/B 2.5 02:42:17 10° NNW 02:45:36 73° ENE 02:48:53 10° SSE
SL-4 R/B 3.7 02:43:33 10° W 02:46:55 19° SW 02:50:15 10° S
Cosmos 1378 Rocket 3.8 02:43:26 10° SSW 02:47:44 49° WNW 02:52:01 10° N
Cosmos 1470 2.7 02:43:56 10° NNW 02:47:47 69° W 02:51:37 10° S
Cosmos 2061 Rocket 4.4 02:45:04 10° N 02:51:16 70° E 02:57:30 10° SSE
Meteor 2-10 4.2 02:45:52 10° NNW 02:51:30 63° W 02:56:58 10° S
Cosmos 1818 3.6 02:48:30 10° NW 02:54:00 80° WSW 02:59:27 10° SSE
CZ-2C R/B 2.5 02:49:21 10° N 02:54:01 57° WNW 02:58:51 10° SSW
Cosmos 2173 Rocket 3.9 02:49:08 10° NNW 02:55:12 72° W 03:01:16 10° S
Cosmos 1048 Rocket 4.5 02:52:56 10° NW 02:57:58 41° WSW 03:02:54 10° S
ALOS 2.3 02:56:09 10° NNE 03:00:51 85° WNW 03:05:30 10° SSW
RESURS DK-1 3.3 02:57:00 10° NNW 03:01:06 55° ENE 03:05:10 10° SE
CZ-4C R/B 4.3 02:57:16 10° WNW 03:01:33 16° WSW 03:06:04 10° SW
Cosmos 1674 Rocket 4.5 02:57:54 10° SW 03:01:45 30° WNW 03:05:39 10° N
Cosmos 1707 2.7 02:58:09 10° SSW 03:02:00 72° W 03:05:52 10° N
USA 306 3.6 02:58:09 10° NW 03:02:26 60° NNE 03:06:40 10° ESE
Cosmos 1400 Rocket 3.2 02:59:29 10° NNW 03:03:27 44° W 03:07:22 10° SSW
Cosmos 2123 Rocket 4.2 02:58:08 10° S 03:04:18 78° E 03:10:30 10° N
SL-24 R/B - RUBIN 2 4.2 03:01:26 10° NW 03:06:37 45° WSW 03:11:12 10° S
Cosmos 1459 Rocket 4.1 03:02:08 10° NNW 03:08:24 59° W 03:14:34 10° S
